This demonstration page uses our WeatherBlox Daily Observations layout. Learn more.

Left ArrowRight Arrow

Hourly Observations for November 17, 2022

Temp ( °F °C ) Dew Point ( °F °C ) Humidity (%) Winds ( mph kmh ) Pressure ( in mb ) Visibility ( mi km ) Precip ( " mm )
12:56 am 00:56 Cloudy 31 -0.6 24 -4.4 75 75 WNW 6 9 30.32 1027 10 16 0.00 0.00
1:56 am 01:56 Cloudy 31 -0.6 24 -4.4 75 75 NW 7 11 30.32 1027 10 16 0.00 0.00
2:56 am 02:56 Mostly Cloudy 30 -1.1 23 -5 75 75 NW 8 13 30.31 1026 10 16 0.00 0.00
3:56 am 03:56 Mostly Cloudy 29 -1.7 23 -5 78 78 NW 7 11 30.31 1027 10 16 0.00 0.00
4:56 am 04:56 Cloudy 31 -0.6 24 -4.4 75 75 NNW 8 13 30.32 1027 10 16 0.00 0.00
5:56 am 05:56 Cloudy with Light Snow 31 -0.6 27 -2.8 85 85 NNW 8 13 30.35 1028 8 13 0.01 0.13
6:11 am 06:11 Cloudy with Light Snow 30 -1 28 -2 93 93 NW 8 13 30.39 1029 4 6 0.01 0.13
6:27 am 06:27 Cloudy with Light Snow 30 -1 27 -3 86 86 WNW 8 13 30.39 1029 9 14 0.01 0.13
6:56 am 06:56 Cloudy with Light Snow 30 -1.1 28 -2.2 92 92 NW 12 19 30.36 1028 9 14 0.01 0.13
7:03 am 07:03 Cloudy with Light Wintry Mix 30 -1 28 -2 93 93 NNW 16 26 30.40 1030 9 14 0.01 0.13
7:42 am 07:42 Cloudy 28 -2 21 -6 74 74 N 17 28 30.43 1030 10 16 0.01 0.13
7:56 am 07:56 Cloudy 28 -2.2 21 -6.1 75 75 N 15 24 30.40 1029 10 16 0.01 0.13
8:56 am 08:56 Cloudy 28 -2.2 20 -6.7 71 71 NNW 15 24 30.42 1030 10 16 0.00 0.00
9:44 am 09:44 Mostly Cloudy 30 -1 21 -6 69 69 NNW 15 24 30.48 1032 10 16 0.00 0.00
9:56 am 09:56 Cloudy 30 -1.1 21 -6.1 69 69 NW 17 28 30.44 1031 10 16 0.00 0.00
10:56 am 10:56 Mostly Cloudy 31 -0.6 18 -7.8 58 58 NNW 21 33 30.45 1031 10 16 0.00 0.00
11:56 am 11:56 Mostly Cloudy 31 -0.6 15 -9.4 51 51 NNW 23 37 30.44 1031 10 16 0.01 0.13
12:56 pm 12:56 Mostly Cloudy 32 0 15 -9.4 49 49 NW 20 31 30.42 1030 10 16 0.00 0.00
1:56 pm 13:56 Cloudy 32 0 15 -9.4 49 49 NNW 21 33 30.41 1030 10 16 0.00 0.00
2:56 pm 14:56 Mostly Cloudy 33 0.6 12 -11.1 41 41 NW 22 35 30.41 1030 10 16 0.00 0.00
3:56 pm 15:56 Cloudy 29 -1.7 12 -11.1 49 49 NNW 22 35 30.44 1031 10 16 0.01 0.13
4:56 pm 16:56 Mostly Cloudy 26 -3.3 9 -12.8 48 48 NNW 20 31 30.46 1031 10 16 0.00 0.00
5:56 pm 17:56 Clear 22 -5.6 7 -13.9 52 52 NW 10 17 30.48 1032 10 16 0.00 0.00
6:56 pm 18:56 Cloudy 22 -5.6 7 -13.9 52 52 NNW 18 30 30.50 1033 10 16 0.00 0.00
7:56 pm 19:56 Mostly Cloudy 21 -6.1 4 -15.6 47 47 NNW 18 30 30.52 1034 10 16 0.00 0.00
8:56 pm 20:56 Cloudy 18 -7.8 4 -15.6 53 53 NW 7 11 30.54 1034 10 16 0.00 0.00
9:56 pm 21:56 Clear 17 -8.3 6 -14.4 61 61 NW 13 20 30.55 1034 10 16 0.00 0.00
10:56 pm 22:56 Mostly Clear 16 -8.9 5 -15 61 61 NW 9 15 30.55 1035 10 16 0.00 0.00
11:56 pm 23:56 Clear 15 -9.4 5 -15 64 64 NNW 17 28 30.55 1035 10 16 0.00 0.00

Powered by AerisWeather